#timestamp,LO_Frequency,Hit,StdDev 
1601413215.1,286047001.1,N
1601413216.0,286047001.1,N
1601413235.8,286046999.1,N
1601413255.6,286046999.1,N
1601413275.5,286047000.4,N
1601413295.3,286046998.6,N
1601413315.2,286047000.0,N
1601413335.9,286047002.1,N
1601413355.7,286046998.6,N
1601413375.6,286046998.9,N
1601413395.4,286046998.6,N
1601413415.3,286047002.3,N
1601413435.1,286047001.4,N
1601413436.0,286047001.4,N
1601413455.8,286047005.0,N
1601413475.7,286047005.2,N
1601413495.5,286047006.6,N
1601413515.3,286047010.1,Y
1601413535.2,286047008.1,P
1601413555.0,286047012.0,P
1601413555.9,286047012.0,N
1601413575.8,286047012.2,N
1601413595.6,286047013.2,Y
1601413615.4,286047007.5,P
1601413635.3,286047003.0,P
1601413655.1,286047004.4,N
1601413675.9,286047002.1,N
1601413695.7,286047001.5,N
1601413715.5,286047005.3,N
1601413735.4,286047006.2,N
1601413755.2,286047006.9,N
1601413775.0,286047007.5,Y
1601413775.9,286047007.5,P
1601413795.8,286047002.4,N
1601413815.6,286047000.5,N
1601413835.5,286047000.7,N
1601413855.3,286046998.7,N
1601413875.1,286046999.2,N
1601413895.9,286047000.3,N
1601413915.7,286047001.5,N
1601413935.6,286047006.5,N
1601413955.4,286047008.2,N
1601413975.2,286047009.2,N
1601413995.1,286047008.9,N
1601413996.0,286047008.9,N
1601414015.8,286047008.4,N
1601414035.7,286047009.0,N
1601414055.5,286047006.1,N
1601414075.3,286047006.5,N
1601414095.2,286047007.5,N
1601414115.0,286047004.7,N
1601414115.9,286047004.7,N
1601414135.7,286047007.4,N
1601414155.6,286047009.2,N
1601414175.4,286047010.4,N
1601414195.3,286047008.4,N
1601414215.1,286047006.8,N
1601414216.0,286047006.8,N
1601414235.8,286047004.8,N
1601414255.7,286047007.0,N
1601414275.5,286047006.9,N
1601414295.3,286047007.2,N
1601414315.2,286047006.1,N
1601414335.0,286047009.6,N
1601414335.9,286047009.6,N
1601414355.8,286047009.3,N
1601414375.6,286047010.6,Y
1601414395.4,286047003.9,P
1601414415.3,286047004.8,P
1601414435.1,286047005.2,P
1601414455.9,286047004.2,Y
1601414475.7,286046999.2,P
1601414495.5,286047000.4,N
1601414515.4,286047002.1,N
1601414535.2,286047002.5,N
1601414555.1,286047002.4,N
1601414556.0,286047002.4,N
1601414575.8,286047001.4,N
1601414595.6,286047005.4,Y
1601414615.5,286047004.1,P
1601414635.3,286047003.2,N
1601414655.1,286047007.3,P
1601414675.9,286047007.7,Y
1601414695.7,286047008.5,P
1601414715.6,286047010.4,P
1601414735.4,286047013.5,P
1601414755.2,286047014.0,Y
1601414775.1,286047003.8,P
1601414776.0,286047003.8,N
1601414795.8,286047003.4,N
1601414815.7,286047005.2,N
1601414835.5,286047001.7,N
1601414855.3,286047000.9,N
1601414875.2,286047002.6,N
1601414895.0,286047001.7,N
1601414895.9,286047001.7,N
1601414915.7,286047002.4,N
1601414935.6,286047003.6,N
1601414955.4,286047004.2,N
1601414975.3,286047005.9,N
1601414995.1,286047007.4,Y
1601415015.8,286047003.7,P
1601415035.7,286047003.1,P
1601415055.5,286047005.8,P
1601415075.4,286047006.2,Y
1601415095.2,286047004.2,P
1601415115.0,286047005.6,P
1601415115.9,286047005.6,P
1601415135.8,286047008.6,Y
1601415155.6,286047005.1,P
1601415175.5,286047008.3,P
1601415195.3,286047013.5,P
1601415215.1,286047013.1,Y
1601415235.9,286047007.8,P
1601415255.7,286047009.4,P
1601415275.5,286047014.0,P
1601415295.4,286047013.5,Y
1601415315.2,286047003.0,P
1601415335.1,286047009.2,N
1601415336.0,286047009.2,N
1601415355.8,286047008.4,Y
1601415375.6,286047002.0,P
1601415395.5,286047004.4,N
1601415415.3,286047003.4,N
1601415435.2,286047007.4,Y
1601415455.9,286047001.7,P
1601415475.7,286047003.9,N
1601415495.6,286047003.8,P
1601415515.4,286047007.1,Y
1601415535.3,286047003.6,P
1601415555.1,286047006.0,P
1601415556.0,286047006.0,P
1601415575.8,286047004.5,Y
1601415595.7,286047002.8,P
1601415615.5,286046998.3,N
1601415635.4,286047001.9,N
1601415655.2,286047004.0,N
1601415675.0,286047006.0,N
1601415675.9,286047006.0,N
1601415695.8,286047006.9,N
1601415715.6,286047008.8,Y
1601415735.4,286047003.4,P
1601415755.3,286047005.8,P
1601415775.1,286047006.7,P
1601415795.9,286047008.3,Y
1601415815.7,286047007.6,P
1601415835.5,286047007.5,P
1601415855.4,286047010.8,P
1601415875.2,286047007.8,Y
1601415895.1,286046998.1,P
1601415896.0,286046998.1,N
1601415915.8,286047000.0,N
1601415935.6,286047002.0,N
1601415955.5,286047003.0,N
1601415975.3,286047007.5,N
1601415995.2,286047006.2,N
1601416015.9,286047009.4,N
1601416035.7,286047012.1,N
1601416055.6,286047012.1,N
1601416075.4,286047012.7,N
1601416095.2,286047016.3,Y
1601416115.1,286047011.4,P
1601416116.0,286047011.4,P
1601416135.8,286047011.6,P
1601416155.7,286047011.1,Y
1601416175.5,286047001.7,P
1601416195.3,286047003.3,N
1601416215.2,286047005.4,N
1601416235.0,286047003.2,N
1601416235.9,286047003.2,N
1601416255.8,286047003.7,N
1601416275.6,286047003.7,N
1601416295.4,286047005.6,N
1601416315.3,286047005.6,N
1601416335.1,286047004.0,N
1601416355.9,286047000.1,N
1601416375.7,286047002.3,N
1601416395.5,286046999.7,N
1601416415.4,286046999.8,N
1601416435.2,286047000.9,N
1601416455.0,286047000.1,N
1601416455.9,286047000.1,N
1601416475.8,286047000.4,N
1601416495.6,286047002.6,N
1601416515.5,286046999.7,N
1601416535.3,286047002.6,N
1601416555.1,286047001.9,N
1601416575.9,286047000.2,N
1601416595.7,286047000.1,N
1601416615.6,286047000.2,N
1601416635.4,286046999.0,N
1601416655.2,286046996.9,N
1601416675.1,286046998.3,N
1601416676.0,286046998.3,N
1601416695.8,286046998.5,N
1601416715.6,286046999.0,N
1601416735.5,286046997.4,N
1601416755.3,286046997.2,N
1601416775.2,286046999.5,N
1601416795.9,286046998.7,N
